This is the latest recevied weather packets stored in our database for station/object DK6OC-10. If no packets are shown the sender has not sent any weather packets the latest 1 day(s).
| Time | Temp. | Humidity | Pressure | Rain* | Wind** | Luminosity | Snow |
|---|---|---|---|---|---|---|---|
| 1788311292 | 19.44° C | 55% | 1016.6 hPa | - | - | - | - |
| 1788309492 | 19.44° C | 55% | 1016.7 hPa | - | - | - | - |
| 1788307689 | 20° C | 55% | 1016.7 hPa | - | - | - | - |
| 1788305889 | 20° C | 55% | 1016.7 hPa | - | - | - | - |
| 1788304088 | 20° C | 55% | 1016.7 hPa | - | - | - | - |
| 1788302288 | 20.56° C | 55% | 1017.1 hPa | - | - | - | - |
| 1788300488 | 20.56° C | 55% | 1017.2 hPa | - | - | - | - |
| 1788298688 | 20.56° C | 56% | 1017.1 hPa | - | - | - | - |
| 1788296888 | 20.56° C | 55% | 1016.9 hPa | - | - | - | - |
| 1788295088 | 21.11° C | 56% | 1017 hPa | - | - | - | - |
| 1788293288 | 21.11° C | 56% | 1016.6 hPa | - | - | - | - |
| 1788291488 | 21.67° C | 55% | 1016.7 hPa | - | - | - | - |
| 1788289688 | 21.67° C | 55% | 1016.6 hPa | - | - | - | - |
| 1788287887 | 22.22° C | 55% | 1016.6 hPa | - | - | - | - |
| 1788286087 | 22.78° C | 54% | 1016.5 hPa | - | - | - | - |
| 1788284287 | 23.33° C | 53% | 1016.4 hPa | - | - | - | - |
| 1788282487 | 23.33° C | 49% | 1016.2 hPa | - | - | - | - |
| 1788280687 | 23.33° C | 50% | 1016.3 hPa | - | - | - | - |
| 1788278887 | 23.33° C | 51% | 1016.3 hPa | - | - | - | - |
| 1788277087 | 23.33° C | 54% | 1016.3 hPa | - | - | - | - |
| 1788275287 | 23.33° C | 54% | 1016.2 hPa | - | - | - | - |
| 1788273487 | 22.78° C | 55% | 1016.2 hPa | - | - | - | - |
| 1788271687 | 22.78° C | 54% | 1016.3 hPa | - | - | - | - |
* Rain since midnight (hover to see other rain measurements)
** Current wind speed in m/s (hover to see current wind gust speed)